Location: Walton
(43.6794°N, 81.3017°W)
Time: 21:33:58
(UTC+00:00)

IRS-1D - Pass Details

Date: 09 December 2025
Orbit: 737 x 810 km, 98.8° (Epoch: 21 January)

Event Time Altitude Azimuth Distance (km) Brightness Sun altitude
Rises 10:03:40 0° 19° (NNE) 3,202 6.9 -28.7°
Reaches altitude 10° 10:06:01 10° 24° (NNE) 2,282 6.1 -28.2°
Maximum altitude 10:10:53 50° 100° (E) 961 4.3 -27.4°
Drops below altitude 10° 10:15:49 10° 176° (S) 2,309 6.1 -26.5°
Sets 10:18:13 0° 182° (S) 3,243 6.8 -26.0°
